[[{"header":{"parameterUnit":"m.s-1","parameterCategory":1,"la1":30.2992,"la2":30.254,"lo1":-89.0895,"lo2":-89.0443,"dy":0.0025,"dx":0.0025,"nx":19,"ny":19,"refTime":"2026-04-17T09:00:00:Z","depth":0,"parameterNumber":2,"parameterNumberName":"U-component_of_WINDS"},"data":[0,0,0,2.6924,2.6926,2.6982,2.6982,2.7058,2.7059,0,0,0,0,0,0,0,0,0,0,0,2.691,2.6911,2.6924,2.6926,2.6982,2.6982,2.7058,2.7059,0,0,0,0,0,0,0,0,0,0,0,2.691,2.691,2.6911,2.6926,2.6981,2.6982,2.7058,2.7014,0,0,0,0,0,0,0,0,0,0,2.6959,2.6948,2.691,2.6911,2.6926,2.6981,2.6982,2.7012,2.7017,2.7035,0,2.7051,0,2.7056,2.7064,2.7065,0,0,0,2.6924,2.6943,2.6957,2.6911,2.6927,2.6981,2.6956,2.7015,2.702,2.7042,2.7052,2.7054,2.7057,2.7065,2.7065,2.7174,2.7174,0,0,2.6921,2.6921,2.6953,2.696,2.6951,2.6954,2.6958,2.7018,2.7029,2.7052,2.7056,2.7059,2.7065,2.7066,2.7173,2.7174,0,0,0,2.6913,2.6919,2.6931,2.6957,2.6967,2.6956,2.696,2.7027,2.7031,2.7057,2.706,2.7066,2.7067,2.7172,2.7173,2.7201,0,0,0,2.6911,2.6914,2.6929,2.693,2.6966,2.6997,2.6967,2.7026,2.7033,2.7059,2.7066,2.7068,2.7172,2.7173,2.7199,2.7214,0,0,0,2.6906,2.6914,2.6923,2.693,2.6954,2.6996,2.7004,2.7028,2.7035,2.7065,2.7068,2.7171,2.7173,2.7197,2.7211,2.7243,0,0,0,2.6899,2.6946,2.6923,2.6977,2.6953,2.7013,2.7003,2.7048,2.7077,2.7066,2.7172,2.7173,2.7197,2.7209,2.7241,2.7269,2.7281,0,0,2.6958,2.6953,2.6985,2.6966,2.703,2.7005,2.7074,2.71,2.7104,2.715,2.7153,2.72,2.7211,2.7243,2.7349,2.7359,0,0,0,2.7004,2.7026,2.7043,2.7071,2.7093,2.7114,2.713,2.714,2.718,2.7127,2.722,2.7227,2.7246,2.7259,2.7267,2.7284,2.718,2.7179,2.7179,2.7086,2.7088,2.7141,2.7151,2.7178,2.7196,2.7219,2.7236,2.7229,2.7252,2.7265,2.7329,2.7345,2.7351,2.7368,2.7281,2.7281,2.7281,2.7281,2.7172,2.7205,2.7197,2.7246,2.7248,2.729,2.731,2.7304,2.7344,2.7319,2.7335,2.7307,2.7362,2.7377,2.7283,2.7283,2.7283,2.7282,2.7282,2.7226,2.7242,2.7254,2.7296,2.7329,2.7337,2.7376,2.7378,2.7379,2.7396,2.7411,2.741,2.741,2.7403,2.7403,2.7403,2.7404,2.7404,2.7404,2.7276,2.7289,2.7321,2.735,2.7369,2.7395,2.7415,2.7435,2.7456,2.7454,2.7455,2.7447,2.7367,2.7346,2.7407,2.7407,2.7406,2.7406,2.7406,2.7361,2.7342,2.7391,2.7411,2.7446,2.748,2.7482,2.7522,2.7538,2.7558,2.7548,2.7488,2.7483,2.7477,2.746,2.7547,2.7547,2.7547,2.7547,2.7405,2.7403,2.7455,2.7486,2.7517,2.7525,2.7583,2.7601,2.7616,2.7627,2.7615,2.7593,2.7587,2.7585,2.7576,2.7561,2.7671,2.7671,2.7672,2.7458,2.7459,2.7507,2.7521,2.755,2.7576,2.763,2.7668,2.7682,2.7677,2.7636,2.763,2.7595,2.7583,2.7575,2.7561,2.7532,0,0]},{"header":{"parameterUnit":"m.s-1","parameterCategory":1,"la1":30.2992,"la2":30.254,"lo1":-89.0895,"lo2":-89.0443,"dy":0.0025,"dx":0.0025,"nx":19,"ny":19,"refTime":"2026-04-17T09:00:00:Z","depth":0,"parameterNumber":3,"parameterNumberName":"V-component_of_WINDS"},"data":[0,0,0,-9.9832,-9.9838,-10.0088,-10.0089,-10.0416,-10.0419,0,0,0,0,0,0,0,0,0,0,0,-9.9767,-9.977,-9.9832,-9.9839,-10.0088,-10.0089,-10.0415,-10.0419,0,0,0,0,0,0,0,0,0,0,0,-9.9766,-9.9769,-9.9772,-9.984,-10.0088,-10.0089,-10.0414,-10.0222,0,0,0,0,0,0,0,0,0,0,-9.9978,-9.9927,-9.9768,-9.9772,-9.9841,-10.0087,-10.0089,-10.0213,-10.0234,-10.0307,0,-10.0378,0,-10.0404,-10.0441,-10.0443,0,0,0,-9.983,-9.9909,-9.997,-9.9773,-9.9843,-10.0087,-9.9973,-10.0225,-10.0249,-10.0336,-10.0383,-10.0395,-10.041,-10.0444,-10.0445,-10.0906,-10.0909,0,0,-9.9817,-9.9815,-9.9953,-9.9986,-9.9953,-9.9965,-9.9981,-10.0239,-10.0288,-10.0384,-10.0402,-10.0415,-10.0446,-10.0449,-10.0904,-10.0907,0,0,0,-9.9783,-9.9806,-9.986,-9.9973,-10.0018,-9.9972,-9.9991,-10.0277,-10.0295,-10.0406,-10.0419,-10.0448,-10.0452,-10.0901,-10.0905,-10.1031,0,0,0,-9.9774,-9.9786,-9.9854,-9.9855,-10.0013,-10.0151,-10.0023,-10.0277,-10.0306,-10.0417,-10.0448,-10.0455,-10.0898,-10.0903,-10.1022,-10.109,0,0,0,-9.9748,-9.9783,-9.9823,-9.9855,-9.9963,-10.0147,-10.018,-10.0283,-10.0315,-10.0443,-10.0456,-10.0897,-10.0902,-10.1014,-10.1076,-10.1213,0,0,0,-9.9717,-9.9926,-9.9824,-10.0063,-9.9961,-10.0225,-10.0178,-10.0373,-10.0498,-10.045,-10.0899,-10.0905,-10.1011,-10.1067,-10.1204,-10.1327,-10.1379,0,0,-9.998,-9.9958,-10.0099,-10.0015,-10.0298,-10.0187,-10.0487,-10.0599,-10.061,-10.0806,-10.0817,-10.1025,-10.1075,-10.1211,-10.167,-10.1711,0,0,0,-10.0181,-10.0282,-10.0357,-10.048,-10.0576,-10.0663,-10.0731,-10.0774,-10.0942,-10.0712,-10.1111,-10.1141,-10.1221,-10.128,-10.1315,-10.1383,-10.0932,-10.0932,-10.0931,-10.0546,-10.0555,-10.0789,-10.083,-10.0949,-10.1021,-10.1117,-10.1186,-10.1154,-10.1249,-10.1306,-10.1585,-10.1654,-10.1681,-10.1752,-10.1373,-10.1373,-10.1374,-10.1374,-10.0931,-10.1076,-10.1038,-10.1251,-10.1258,-10.1435,-10.1514,-10.1487,-10.1651,-10.1541,-10.1611,-10.1489,-10.1726,-10.1788,-10.1384,-10.1382,-10.1381,-10.138,-10.1379,-10.1171,-10.1242,-10.1295,-10.1477,-10.1615,-10.1647,-10.181,-10.1809,-10.1809,-10.1879,-10.194,-10.1938,-10.1936,-10.1909,-10.191,-10.1911,-10.1912,-10.1912,-10.1913,-10.1398,-10.1454,-10.1594,-10.1719,-10.18,-10.1906,-10.1984,-10.2062,-10.2148,-10.2134,-10.2135,-10.2095,-10.1749,-10.1661,-10.1928,-10.1925,-10.1923,-10.1922,-10.1921,-10.1783,-10.1698,-10.1913,-10.1996,-10.2144,-10.2283,-10.2283,-10.2443,-10.2508,-10.2588,-10.2536,-10.228,-10.2255,-10.2227,-10.2155,-10.2533,-10.2533,-10.2533,-10.2533,-10.1984,-10.1975,-10.2198,-10.2331,-10.2459,-10.2483,-10.2726,-10.279,-10.2841,-10.2881,-10.2827,-10.2732,-10.2703,-10.2695,-10.2657,-10.259,-10.307,-10.3071,-10.3071,-10.2222,-10.2226,-10.2434,-10.249,-10.2607,-10.2707,-10.2935,-10.3086,-10.3125,-10.3093,-10.2913,-10.2891,-10.2736,-10.2686,-10.2646,-10.2587,-10.2463,0,0]}]]